Temperature
17 17 17 17 16 14 14 13 13 14 13 14 14 14 16 17 17 16 16 16 16 16 16 15 15 15 15 14 14 13 12 12 11 11 10 10 10 10 10 10 10 10 10 10
18 17 17 17 17 15 14 14 14 13 13 14 16 16 16 17 17 16 16 16 16 16 16 15 15 15 15 14 14 13 13 12 11 11 10 10 10 10 10 9 9 9 9 10
16 16 18 18 18 16 16 14 15 15 15 15 16 16 18 18 18 17 17 17 16 16 16 16 15 15 15 14 14 13 13 12 11 11 10 10 10 10 10 9 9 9 9 9
14 18 20 19 19 18 17 17 14 15 15 16 17 18 19 19 19 18 18 17 17 16 16 16 15 15 15 15 14 13 13 12 11 11 11 10 10 10 10 9 9 9 9 9
13 16 17 18 19 19 19 19 18 16 16 17 17 17 19 20 19 19 18 17 17 17 16 16 16 15 15 15 14 13 13 12 11 11 11 10 10 10 10 9 9 9 9 9
13 17 18 19 19 20 19 19 19 18 18 17 16 15 17 20 20 19 19 18 17 17 16 16 16 15 15 15 14 14 13 12 12 11 11 10 10 10 10 10 9 9 9 9
13 15 15 16 18 19 19 18 20 20 20 18 17 18 20 20 20 20 19 18 17 17 17 16 16 16 15 15 15 14 13 13 12 11 11 11 10 10 10 10 10 10 9 9
12 15 17 19 18 18 18 20 21 21 21 20 21 21 20 20 20 20 19 19 18 17 17 17 16 16 16 16 15 14 14 13 12 12 11 11 11 10 10 10 10 10 10 9
13 15 17 17 17 17 18 19 20 20 20 20 20 21 21 20 20 20 19 19 18 18 17 17 16 16 16 16 15 15 14 14 13 12 12 11 11 11 10 10 10 10 10 10
13 15 16 15 16 17 18 19 19 20 20 20 20 20 20 20 20 20 19 19 18 18 17 17 17 17 16 16 15 15 15 14 13 13 12 12 11 11 11 10 10 10 10 10
14 15 16 15 15 16 18 19 20 20 20 20 20 20 20 20 20 20 19 19 19 18 18 18 17 17 17 16 16 15 15 15 14 13 13 12 12 11 11 11 10 10 10 10
14 13 13 12 13 15 17 18 18 19 19 19 19 19 19 19 19 19 19 19 18 18 18 18 18 17 17 17 16 16 16 15 15 14 13 13 12 12 11 11 11 10 10 10
12 13 13 12 13 15 16 16 16 17 17 17 18 18 18 18 18 18 18 18 18 18 18 18 18 18 18 17 16 16 16 16 15 15 14 13 13 12 12 11 11 11 11 10
13 13 12 12 12 13 14 14 15 15 15 15 16 16 16 17 17 17 17 18 18 18 18 18 18 18 18 17 17 17 16 16 16 15 14 14 13 13 12 12 11 11 11 11
12 13 12 11 12 12 13 14 15 14 14 14 14 15 15 15 15 15 16 16 17 17 18 17 17 18 18 17 17 17 17 16 16 16 15 14 14 13 13 12 12 12 11 11
11 11 11 11 11 11 12 13 13 12 12 12 13 13 13 13 13 14 14 15 15 15 16 16 17 17 17 17 17 17 17 17 16 16 15 15 14 14 13 13 12 12 12 12
10 10 10 10 10 10 10 10 10 10 10 10 10 11 11 12 13 13 13 13 13 13 13 14 15 16 16 16 16 17 17 17 16 16 16 15 15 14 14 13 13 12 12 12
10 10 9 9 9 9 9 9 9 9 9 9 9 9 10 10 10 10 10 10 11 12 12 12 13 14 15 15 15 16 16 16 16 16 16 16 15 15 14 14 13 13 13 12
9 9 9 8 8 8 8 8 8 8 8 8 8 8 8 8 8 8 8 9 9 10 10 10 11 12 13 13 14 15 15 16 16 16 16 15 15 15 14 14 14 13 13 13
8 8 8 8 8 8 7 7 7 7 7 7 7 7 7 7 7 7 7 7 7 7 8 8 9 10 11 12 12 13 14 14 15 15 15 15 15 15 15 14 14 14 13 13
8 8 7 7 7 7 7 6 6 6 6 6 6 6 6 6 6 6 6 7 7 7 7 7 8 8 9 9 10 11 12 13 13 14 14 14 14 14 14 14 14 14 14 13
7 7 7 7 6 6 6 6 6 6 6 6 5 6 6 6 6 6 5 5 6 6 6 6 6 6 7 8 9 9 10 11 11 12 12 12 13 13 14 14 14 14 14 14
7 7 6 6 6 6 6 6 6 6 5 5 5 5 5 5 5 5 5 5 5 5 5 5 5 5 6 6 7 7 8 9 9 9 10 10 11 11 12 13 13 14 14 14
6 6 6 6 6 6 6 6 6 5 5 5 5 5 5 5 5 4 4 4 4 5 5 5 5 5 5 5 6 6 6 7 7 7 8 9 9 10 10 11 12 12 13 13
6 6 6 6 6 6 6 6 6 5 5 5 5 5 5 4 4 4 4 4 4 4 4 4 4 4 4 4 5 5 5 5 5 6 6 7 8 8 9 10 11 11 12 12
6 6 6 6 6 6 6 6 6 6 5 5 5 5 5 5 5 4 4 4 4 4 4 4 4 4 4 4 4 4 4 4 4 5 5 5 6 7 8 8 9 10 11 12
6 6 6 6 6 6 6 6 6 5 5 5 5 5 5 5 5 4 4 4 4 4 4 4 4 4 4 4 4 4 3 3 4 4 4 4 4 5 6 7 8 9 10 11
Wind_Speed
4 3 4 6 6 8 8 8 8 8 8 12 10 9 8 8 8 8 8 8 8 7 7 6 6 6 5 5 4 2 2 2 4 4 4 5 5 5 6 6 6 6 7 7
2 3 4 5 6 8 8 6 8 7 10 11 8 5 5 7 8 9 10 9 9 8 7 7 7 6 5 5 4 3 3 3 3 3 4 5 5 5 6 6 6 6 6 7
2 4 3 5 6 7 6 8 8 8 8 6 5 6 7 8 9 10 11 10 9 8 8 7 7 6 6 5 3 3 3 3 3 3 4 5 5 5 6 6 5 6 6 6
1 3 3 6 3 6 6 7 10 9 9 7 8 7 7 7 9 10 10 10 9 8 7 6 5 4 3 3 3 3 3 3 3 3 4 4 5 5 5 4 5 5 5 6
3 0 6 6 2 5 2 5 5 7 8 6 2 3 6 8 10 11 11 10 9 8 6 5 5 4 3 3 3 3 4 5 4 3 4 4 5 5 4 4 4 4 4 5
4 2 4 5 3 1 2 4 5 5 5 1 4 2 6 6 7 10 9 8 8 6 5 6 5 4 4 4 4 6 6 6 5 4 4 5 5 5 3 3 4 5 4 4
4 3 7 8 4 2 2 5 5 3 3 6 7 7 5 5 4 6 7 8 7 7 6 7 5 5 6 6 8 8 6 5 5 5 5 5 4 3 3 4 4 4 4 5
5 3 6 3 4 4 6 4 3 3 3 6 9 9 7 7 7 6 7 7 7 7 8 7 6 7 7 8 8 6 5 6 6 6 5 3 3 3 3 3 4 4 5 5
8 6 3 4 2 4 4 4 4 4 4 4 6 6 6 6 7 7 8 7 7 8 8 7 7 8 9 9 7 6 6 7 7 6 5 4 4 4 3 2 2 3 3 4
3 4 1 4 5 7 6 4 5 5 5 3 3 6 7 6 6 6 6 7 6 7 8 9 8 9 11 9 6 7 8 8 7 6 6 5 4 4 3 3 3 3 3 3
4 2 1 5 9 10 9 8 9 8 7 7 5 6 6 6 6 6 6 5 5 7 9 11 9 9 10 8 7 8 9 8 7 7 7 6 5 5 6 6 6 5 4 3
5 3 2 1 7 9 8 10 11 11 12 11 9 8 8 6 6 6 6 5 5 7 9 11 9 10 10 8 9 9 8 8 7 6 6 6 6 5 8 10 10 11 10 7
3 1 2 2 6 8 7 8 9 10 10 10 11 10 9 8 8 7 7 6 7 8 10 10 9 10 10 8 9 10 11 9 7 7 6 6 6 6 6 6 8 11 12 12
1 4 5 4 5 7 7 7 7 8 9 9 10 10 11 10 10 11 11 10 9 8 8 8 8 11 11 7 9 11 11 12 9 8 7 7 7 7 6 5 5 5 6 10
7 7 7 5 6 7 7 7 10 12 12 12 11 13 13 14 13 13 13 13 11 9 8 8 9 12 10 7 9 11 10 9 9 8 8 7 7 6 6 7 6 6 4 4
8 8 8 7 7 7 8 10 11 11 11 11 12 12 11 10 10 11 13 15 14 14 13 12 12 13 12 8 8 9 10 14 12 8 8 7 7 7 7 7 7 7 7 6
8 7 6 6 7 7 7 8 7 7 8 10 10 10 11 12 13 14 15 15 12 11 12 14 16 17 14 10 8 8 8 10 14 9 8 9 8 9 9 8 8 8 8 8
8 7 7 7 6 6 6 6 6 7 7 8 8 10 11 13 13 14 14 13 12 12 14 16 18 18 16 14 10 8 8 8 8 9 9 9 9 9 9 9 10 10 8 7
9 8 8 7 6 6 5 5 5 5 6 7 8 8 8 9 10 11 12 12 15 17 18 19 25 19 17 18 17 9 8 9 8 9 9 11 11 9 9 9 10 10 9 7
8 8 7 6 6 5 4 3 4 4 5 6 6 7 8 9 10 10 10 8 8 10 14 18 17 15 17 19 21 11 10 9 10 9 9 9 10 10 10 10 10 10 9 9
8 7 7 6 4 4 3 2 3 4 4 5 5 6 7 8 8 8 9 9 10 13 15 19 15 14 16 20 20 13 11 10 9 9 9 10 10 10 11 11 11 10 10 10
7 6 5 4 3 1 1 1 1 2 3 4 4 5 6 7 8 7 6 6 10 17 13 10 11 18 24 22 14 14 13 12 10 9 8 9 9 10 11 11 11 11 11 10
5 5 4 3 3 2 2 2 2 3 3 4 4 5 5 6 5 5 7 7 7 15 12 9 18 25 26 15 13 14 15 14 13 11 10 9 9 10 11 11 11 11 11 11
5 4 4 3 2 2 3 4 4 4 5 5 6 6 5 5 5 5 5 10 14 15 9 13 21 24 21 12 12 13 13 14 14 13 13 11 10 9 10 10 10 10 11 12
5 4 4 4 4 5 5 5 5 5 5 5 7 7 6 5 5 6 7 8 13 13 9 13 20 21 13 10 11 12 12 13 14 14 13 13 12 11 10 9 10 10 10 11
5 4 5 5 5 5 4 3 3 4 4 5 5 6 5 5 6 7 7 8 10 13 10 8 10 12 9 9 10 11 11 13 13 13 13 13 14 13 12 11 12 10 10 11
4 4 3 3 4 4 4 4 4 5 5 5 6 6 6 6 6 6 7 7 8 8 8 8 8 8 8 9 9 9 10 10 11 12 12 13 13 13 14 15 12 11 10 10
Wind_Direction
227 224 184 207 198 177 186 194 208 242 249 269 271 256 248 232 228 234 247 254 256 262 272 282 285 283 273 265 255 235 243 286 297 310 320 328 333 334 338 344 346 340 342 346
352 358 203 237 233 201 214 215 235 266 276 262 268 256 251 233 221 229 241 247 252 259 264 269 272 275 274 261 245 214 228 263 289 312 325 330 328 329 334 338 338 341 344 342
311 323 24 286 243 193 211 211 202 229 249 276 272 256 248 234 222 227 234 239 244 250 252 256 259 260 260 252 227 210 229 260 283 298 311 318 323 329 329 328 331 332 333 338
58 34 251 244 245 188 212 242 216 236 258 261 250 265 259 231 219 230 233 234 238 240 246 250 251 256 253 226 211 215 235 261 274 283 297 311 319 320 318 316 322 323 326 333
101 40 293 301 247 177 198 289 223 231 269 280 274 336 301 237 213 222 226 225 228 228 227 238 246 244 217 217 217 223 241 253 259 262 282 301 309 311 311 315 321 321 322 336
118 148 237 249 278 198 125 309 277 225 275 215 116 23 283 283 228 227 227 222 223 220 216 231 238 202 194 221 225 234 237 240 246 248 260 277 289 297 302 308 311 318 326 340
148 213 264 251 259 112 108 260 276 238 246 174 195 217 247 304 265 231 225 221 213 206 213 226 214 184 207 223 232 234 231 233 242 246 253 262 280 290 307 320 332 337 332 330
148 182 254 269 158 173 223 263 280 270 245 211 237 263 270 279 276 254 235 223 206 206 225 228 202 191 215 232 234 225 218 230 242 248 253 258 266 290 311 332 338 339 336 332
184 202 244 356 285 310 294 277 289 295 301 263 261 277 278 270 268 258 240 229 212 210 230 236 213 201 219 236 223 209 215 232 241 248 249 248 248 268 289 306 318 320 328 326
232 269 74 31 1 347 332 306 312 318 323 324 286 296 301 290 280 267 250 235 220 214 231 243 228 217 228 237 210 204 221 233 237 241 250 245 236 233 238 253 263 283 300 309
232 273 83 24 10 350 353 14 24 23 24 16 359 334 318 305 294 279 267 251 226 223 234 245 241 232 234 227 205 213 226 233 235 233 237 241 237 230 228 229 212 219 234 240
198 187 164 29 346 348 14 25 24 29 29 22 17 356 343 326 315 302 290 280 259 248 246 252 248 246 243 221 203 210 227 233 231 229 230 230 238 259 241 233 241 233 225 219
199 200 142 91 13 5 21 26 30 35 30 22 15 9 4 350 339 333 321 307 284 271 264 262 257 254 252 225 205 212 224 229 224 221 222 224 222 230 258 265 247 244 240 235
130 136 97 54 20 11 24 31 41 42 33 26 17 14 12 7 0 358 346 327 307 293 287 281 274 269 266 236 215 221 226 230 223 220 218 219 219 220 222 234 259 267 251 239
68 91 106 95 61 41 36 44 49 38 28 24 21 19 15 11 5 357 350 345 337 328 318 310 297 288 288 259 233 230 227 229 225 220 216 215 215 215 217 222 231 244 258 261
103 89 92 86 70 53 47 46 46 33 23 20 18 13 7 1 356 354 357 359 358 353 347 339 326 315 312 291 260 246 238 233 221 217 214 212 211 213 218 221 227 232 238 238
125 117 106 92 76 61 51 47 43 31 23 20 12 5 5 7 8 6 2 359 360 1 1 356 343 335 327 312 286 266 252 244 230 220 217 216 214 216 218 218 223 229 238 228
125 128 132 124 110 86 61 47 39 31 22 11 8 11 12 11 4 356 350 349 355 0 0 351 343 341 338 331 313 288 268 252 234 226 223 220 219 217 214 216 221 228 237 234
121 118 114 108 105 96 75 51 33 22 13 10 11 8 3 359 352 348 347 353 2 358 350 344 344 347 342 339 333 305 284 267 250 239 230 226 223 220 216 219 222 225 226 222
120 117 112 104 96 92 78 49 29 20 9 5 6 5 1 354 348 346 346 348 351 340 334 342 346 344 342 338 336 321 303 282 265 252 239 232 227 224 222 222 222 224 223 222
131 126 119 111 99 83 72 49 30 8 354 358 2 353 342 335 338 341 346 346 339 337 340 346 347 343 343 343 338 333 322 306 286 267 251 242 237 233 228 224 223 223 223 222
144 141 137 133 126 102 347 342 332 327 334 337 336 334 336 334 334 334 329 316 322 337 344 339 339 346 351 349 345 341 336 327 313 296 274 257 247 242 237 231 227 225 222 220
158 162 167 177 189 226 281 276 264 276 289 298 303 306 304 299 300 310 320 317 320 338 343 333 341 348 353 352 346 345 343 339 332 321 306 286 265 253 248 242 236 229 224 220
172 185 198 200 190 223 264 267 268 265 267 274 272 272 272 287 294 274 269 308 326 332 331 332 344 350 352 348 344 345 344 341 338 333 327 316 298 278 262 252 246 239 232 225
187 198 203 202 217 233 243 262 281 279 277 276 279 274 259 240 254 282 294 299 313 322 318 326 337 342 344 336 339 340 340 338 338 337 334 331 324 311 292 274 258 249 242 236
191 205 217 218 223 234 240 244 256 270 274 283 289 284 279 268 262 271 283 290 295 308 310 306 311 321 323 324 327 330 332 333 334 334 332 331 329 326 317 304 283 268 256 246
207 216 227 249 249 231 226 231 246 264 264 265 279 287 289 289 287 285 286 288 293 296 297 297 299 301 305 309 313 317 321 324 327 329 329 328 328 327 324 316 306 290 274 260
Height
1548 1547 1548 1550 1551 1557 1561 1562 1566 1557 1553 1540 1533 1530 1528 1529 1530 1532 1533 1534 1534 1534 1534 1533 1532 1530 1529 1527 1525 1523 1521 1519 1516 1514 1511 1508 1506 1503 1500 1498 1495 1492 1490 1487
1546 1545 1546 1548 1546 1551 1554 1554 1555 1552 1547 1530 1528 1527 1526 1526 1527 1528 1529 1530 1531 1532 1532 1531 1530 1529 1527 1525 1523 1522 1520 1518 1515 1513 1510 1508 1505 1503 1500 1498 1495 1492 1490 1487
1554 1550 1545 1548 1541 1544 1545 1545 1545 1547 1537 1528 1526 1525 1524 1523 1524 1525 1526 1527 1529 1529 1530 1529 1529 1527 1526 1524 1522 1520 1518 1516 1514 1512 1509 1507 1504 1502 1500 1497 1495 1492 1490 1487
1558 1551 1552 1543 1532 1534 1536 1536 1536 1533 1529 1526 1525 1523 1522 1522 1522 1522 1523 1524 1526 1527 1527 1527 1527 1526 1524 1522 1521 1519 1517 1515 1513 1511 1509 1506 1504 1501 1499 1497 1494 1491 1489 1486
1563 1559 1554 1538 1530 1531 1533 1532 1528 1528 1525 1523 1522 1521 1519 1519 1519 1520 1521 1522 1523 1524 1525 1525 1525 1524 1523 1521 1519 1517 1516 1514 1512 1510 1508 1505 1503 1501 1498 1496 1493 1490 1488 1485
1562 1556 1554 1539 1528 1527 1531 1534 1525 1524 1523 1522 1522 1526 1521 1518 1517 1517 1518 1519 1520 1522 1522 1523 1523 1522 1521 1519 1518 1516 1515 1513 1511 1509 1507 1505 1503 1500 1497 1495 1492 1489 1487 1484
1560 1558 1551 1531 1526 1528 1540 1538 1524 1522 1521 1521 1520 1520 1518 1517 1516 1516 1517 1517 1518 1519 1519 1520 1520 1520 1519 1517 1516 1515 1513 1512 1510 1508 1506 1504 1502 1500 1497 1494 1491 1488 1485 1483
1559 1557 1548 1525 1526 1530 1530 1523 1522 1521 1520 1519 1518 1517 1516 1515 1515 1514 1515 1515 1516 1516 1516 1517 1517 1517 1516 1515 1514 1513 1511 1510 1508 1507 1505 1503 1501 1499 1496 1493 1490 1487 1485 1482
1540 1538 1529 1526 1525 1525 1523 1521 1521 1520 1519 1518 1516 1515 1514 1513 1513 1512 1513 1513 1513 1513 1514 1514 1514 1514 1513 1513 1512 1511 1509 1508 1507 1505 1504 1502 1500 1498 1495 1493 1490 1487 1484 1482
1532 1526 1525 1525 1523 1521 1519 1519 1518 1518 1517 1516 1515 1514 1513 1512 1511 1510 1510 1510 1511 1511 1511 1511 1511 1511 1510 1510 1509 1508 1507 1505 1504 1503 1501 1500 1498 1496 1494 1492 1489 1487 1484 1482
1527 1524 1523 1522 1521 1520 1519 1518 1517 1516 1515 1514 1514 1512 1511 1510 1509 1508 1508 1508 1508 1507 1507 1507 1507 1507 1507 1507 1506 1505 1503 1502 1501 1500 1498 1497 1496 1494 1492 1491 1489 1486 1484 1481
1523 1522 1522 1524 1522 1520 1518 1517 1516 1516 1515 1514 1512 1511 1510 1508 1507 1506 1505 1505 1504 1504 1503 1503 1503 1503 1503 1503 1502 1501 1499 1498 1497 1496 1495 1494 1493 1491 1490 1489 1487 1485 1483 1481
1518 1519 1520 1522 1521 1520 1518 1518 1517 1515 1514 1513 1512 1510 1508 1507 1505 1504 1502 1501 1500 1499 1498 1498 1498 1497 1497 1497 1496 1495 1494 1494 1493 1492 1491 1490 1489 1488 1487 1486 1485 1483 1481 1480
1515 1517 1519 1520 1520 1519 1518 1518 1517 1516 1514 1513 1511 1509 1507 1505 1503 1501 1500 1498 1496 1494 1493 1492 1492 1491 1491 1491 1490 1489 1488 1488 1487 1487 1486 1485 1485 1484 1483 1482 1481 1480 1479 1478
1514 1515 1517 1518 1519 1518 1518 1517 1515 1514 1513 1511 1510 1508 1506 1504 1502 1500 1498 1495 1493 1490 1489 1487 1485 1484 1484 1483 1482 1482 1481 1481 1481 1481 1480 1480 1479 1479 1478 1478 1477 1476 1476 1475
1512 1514 1516 1517 1517 1517 1516 1515 1513 1513 1512 1511 1509 1507 1506 1504 1501 1499 1496 1492 1489 1486 1484 1481 1479 1478 1476 1475 1474 1473 1473 1474 1474 1473 1473 1473 1473 1473 1473 1472 1472 1472 1471 1471
1510 1513 1514 1515 1516 1515 1515 1515 1514 1514 1512 1510 1509 1507 1505 1502 1499 1496 1493 1491 1488 1485 1481 1478 1475 1472 1470 1467 1466 1465 1464 1465 1465 1465 1465 1466 1466 1466 1466 1466 1466 1466 1466 1467
1509 1511 1513 1514 1514 1515 1515 1515 1514 1513 1512 1510 1509 1506 1503 1500 1497 1494 1491 1488 1485 1482 1478 1475 1471 1467 1464 1461 1459 1457 1456 1456 1456 1456 1457 1457 1458 1458 1458 1459 1459 1459 1460 1461
1508 1510 1512 1513 1514 1514 1514 1514 1513 1512 1511 1509 1507 1505 1503 1500 1497 1494 1491 1486 1481 1477 1473 1470 1467 1463 1459 1455 1452 1450 1448 1447 1447 1447 1447 1448 1449 1449 1450 1450 1451 1451 1452 1453
1508 1509 1511 1512 1513 1513 1513 1513 1512 1511 1510 1508 1506 1504 1501 1499 1496 1493 1489 1486 1482 1478 1473 1468 1464 1459 1455 1451 1447 1444 1441 1439 1438 1438 1438 1439 1439 1440 1441 1442 1442 1443 1444 1445
1506 1508 1509 1510 1511 1511 1511 1511 1510 1509 1508 1507 1505 1502 1500 1498 1495 1491 1487 1483 1480 1476 1472 1467 1462 1457 1452 1448 1443 1440 1436 1433 1431 1430 1429 1429 1430 1431 1432 1432 1433 1434 1435 1436
1505 1506 1507 1508 1509 1510 1510 1509 1509 1508 1507 1505 1503 1501 1499 1496 1493 1490 1487 1483 1479 1474 1470 1465 1460 1455 1451 1446 1440 1436 1431 1428 1425 1422 1421 1421 1421 1421 1422 1423 1424 1425 1426 1427
1503 1504 1505 1506 1507 1508 1508 1508 1507 1506 1505 1503 1501 1499 1497 1494 1491 1488 1484 1481 1477 1473 1469 1464 1459 1454 1449 1443 1438 1433 1428 1424 1420 1417 1414 1413 1412 1412 1412 1413 1414 1415 1416 1417
1500 1502 1503 1504 1505 1505 1505 1505 1504 1503 1502 1501 1499 1497 1495 1492 1489 1487 1483 1480 1476 1472 1467 1462 1458 1452 1447 1441 1436 1431 1426 1421 1416 1412 1409 1406 1404 1403 1403 1403 1403 1404 1405 1407
1498 1499 1500 1501 1502 1502 1502 1501 1501 1500 1499 1497 1496 1494 1492 1490 1487 1484 1481 1477 1474 1470 1465 1461 1456 1451 1446 1440 1435 1429 1424 1419 1414 1410 1405 1401 1398 1395 1394 1393 1393 1393 1394 1395
1495 1496 1497 1498 1498 1498 1498 1497 1497 1496 1495 1493 1492 1491 1489 1487 1484 1481 1478 1474 1471 1467 1463 1458 1454 1449 1444 1439 1433 1428 1422 1417 1411 1406 1402 1397 1393 1389 1386 1384 1383 1382 1383 1384
1492 1492 1493 1494 1494 1494 1494 1494 1493 1492 1491 1490 1488 1486 1484 1482 1480 1477 1473 1470 1467 1463 1459 1455 1450 1446 1441 1436 1431 1426 1420 1415 1409 1404 1398 1393 1388 1383 1379 1376 1374 1372 1372 1373